Location: Grambois
(43.7619°N, 5.5873°E)
Time: 18:15:08
(UTC+00:00)

deb Chang Zheng 4 - Pass Details

Date: 07 June 2020
Orbit: 602 x 628 km, 98.6° (Epoch: 09 July)

Event Time Altitude Azimuth Distance (km) Brightness Sun altitude
Rises 03:15:03 0° 18° (NNE) 2,887 8.1 -6.8°
Reaches altitude 10° 03:17:17 10° 23° (NNE) 1,974 7.3 -6.4°
Maximum altitude 03:21:29 54° 101° (E) 745 4.3 -5.9°
Drops below altitude 10° 03:25:37 10° 179° (S) 1,946 5.8 -5.3°
Sets 03:27:49 0° 184° (S) 2,842 6.6 -5.0°
